N0JVW-13 Weather Reports


Display with metric or nautical units.
time (UTC)temp
F
wind
direction
speed
MPH
gust
MPH
rain 1hr
in
rain 24hr
in
rain mn
in
humidity
%
barometer
mb
20260905191005 96 317 0.0 0.0 0.00 0.00 0.00 46 1011.4
20260905190549 96 317 0.0 0.0 0.00 0.00 0.00 44 1011.4
20260905190029 95 317 0.0 1.0 0.00 0.00 0.00 47 1011.5
20260905185508 95 317 0.0 1.0 0.00 0.00 0.00 45 1011.7
20260905185051 95 317 0.0 1.0 0.00 0.00 0.00 46 1011.7
20260905184531 94 317 0.0 0.0 0.00 0.00 0.00 47 1011.7
20260905184012 95 317 0.0 0.0 0.00 0.00 0.00 47 1011.8
20260905183556 95 317 0.0 1.0 0.00 0.00 0.00 45 1011.8
20260905183034 96 317 0.0 1.0 0.00 0.00 0.00 44 1011.9
20260905182513 96 317 0.0 1.0 0.00 0.00 0.00 43 1011.9
20260905182057 96 317 0.0 1.0 0.00 0.00 0.00 43 1012.0
20260905181536 96 317 0.0 1.0 0.00 0.00 0.00 44 1012.1
20260905181015 96 317 0.0 1.0 0.00 0.00 0.00 45 1012.2
20260905180559 96 317 0.0 3.0 0.00 0.00 0.00 46 1012.2
20260905180040 95 317 0.0 3.0 0.00 0.00 0.00 44 1012.3
20260905175518 95 317 0.0 0.0 0.00 0.00 0.00 47 1012.3
20260905175103 95 317 0.0 0.0 0.00 0.00 0.00 48 1012.3
20260905174543 94 317 0.0 1.0 0.00 0.00 0.00 49 1012.3
20260905174021 94 317 0.0 1.0 0.00 0.00 0.00 51 1012.4
20260905173500 94 317 0.0 1.0 0.00 0.00 0.00 49 1012.5
20260905173043 94 317 0.0 0.0 0.00 0.00 0.00 48 1012.6
20260905172524 94 317 0.0 0.0 0.00 0.00 0.00 49 1012.7
20260905172003 93 317 0.0 0.0 0.00 0.00 0.00 49 1012.8
20260905171557 93 317 0.0 0.0 0.00 0.00 0.00 52 1012.9
20260905171027 93 317 0.0 0.0 0.00 0.00 0.00 51 1012.9
20260905170506 93 317 0.0 0.0 0.00 0.00 0.00 52 1012.9
20260905170101 92 317 0.0 0.0 0.00 0.00 0.00 52 1012.9
20260905165534 92 317 0.0 0.0 0.00 0.00 0.00 51 1013.0
20260905165012 92 317 0.0 0.0 0.00 0.00 0.00 52 1013.1
20260905164552 92 317 0.0 2.0 0.00 0.00 0.00 51 1013.0
20260905164032 92 317 0.0 2.0 0.00 0.00 0.00 53 1013.0
20260905163513 92 317 0.0 0.0 0.00 0.00 0.00 54 1013.1
20260905163056 91 317 0.0 0.0 0.00 0.00 0.00 54 1013.0
20260905162533 91 317 0.0 0.0 0.00 0.00 0.00 55 1013.0
20260905162013 91 317 0.0 0.0 0.00 0.00 0.00 55 1013.0
20260905161557 91 317 0.0 0.0 0.00 0.00 0.00 54 1013.0
20260905161035 91 317 0.0 0.0 0.00 0.00 0.00 55 1013.1
20260905160515 90 317 0.0 0.0 0.00 0.00 0.00 56 1013.0
20260905160108 90 317 0.0 0.0 0.00 0.00 0.00 57 1013.0
20260905155538 90 317 0.0 0.0 0.00 0.00 0.00 59 1013.0
20260905155018 89 317 0.0 0.0 0.00 0.00 0.00 59 1012.9
20260905154641 89 92 0.0 0.0 0.00 0.00 0.00 60 1012.9
20260905154044 89 92 0.0 0.0 0.00 0.00 0.00 59 1012.9
20260905153519 89 152 0.0 0.0 0.00 0.00 0.00 61 1012.9
20260905153104 88 152 0.0 0.0 0.00 0.00 0.00 60 1012.9
20260905152542 88 152 0.0 0.0 0.00 0.00 0.00 62 1012.9
20260905152021 88 152 0.0 0.0 0.00 0.00 0.00 64 1012.9
20260905151501 87 152 0.0 0.0 0.00 0.00 0.00 65 1012.9
20260905151043 87 152 0.0 0.0 0.00 0.00 0.00 65 1012.9
20260905150525 86 152 0.0 0.0 0.00 0.00 0.00 67 1012.8
20260905150005 86 152 0.0 0.0 0.00 0.00 0.00 66 1012.8
20260905145549 85 152 0.0 0.0 0.00 0.00 0.00 68 1012.8
20260905145028 85 152 0.0 0.0 0.00 0.00 0.00 68 1012.8
20260905144507 84 152 0.0 0.0 0.00 0.00 0.00 69 1012.7
20260905144051 84 152 0.0 0.0 0.00 0.00 0.00 70 1012.6
20260905143532 83 152 0.0 0.0 0.00 0.00 0.00 70 1012.7
20260905143010 82 152 0.0 0.0 0.00 0.00 0.00 71 1012.6
20260905142555 82 152 0.0 0.0 0.00 0.00 0.00 71 1012.6
20260905142034 81 152 0.0 0.0 0.00 0.00 0.00 71 1012.6
20260905141514 81 152 0.0 0.0 0.00 0.00 0.00 70 1012.6
20260905141057 80 152 0.0 0.0 0.00 0.00 0.00 69 1012.7
20260905140536 80 152 0.0 0.0 0.00 0.00 0.00 66 1012.7
20260905140016 79 152 0.0 0.0 0.00 0.00 0.00 63 1012.6
20260905135559 79 152 0.0 0.0 0.00 0.00 0.00 62 1012.6
20260905135038 79 152 0.0 0.0 0.00 0.00 0.00 61 1012.6
20260905134522 78 152 0.0 0.0 0.00 0.00 0.00 62 1012.5
20260905134103 78 152 0.0 0.0 0.00 0.00 0.00 59 1012.4
20260905133540 77 152 0.0 0.0 0.00 0.00 0.00 56 1012.4
20260905133020 77 152 0.0 0.0 0.00 0.00 0.00 55 1012.3
20260905132604 77 152 0.0 0.0 0.00 0.00 0.00 52 1012.3
20260905132044 77 152 0.0 0.0 0.00 0.00 0.00 51 1012.3
20260905131533 77 152 0.0 0.0 0.00 0.00 0.00 51 1012.2
20260905131002 76 152 0.0 0.0 0.00 0.00 0.00 49 1012.2
20260905130551 76 152 0.0 0.0 0.00 0.00 0.00 48 1012.1
20260905130026 76 152 0.0 0.0 0.00 0.00 0.00 49 1012.0
20260905125505 76 152 0.0 0.0 0.00 0.00 0.00 50 1012.0
20260905125048 76 152 0.0 0.0 0.00 0.00 0.00 50 1011.9
20260905124527 75 152 0.0 0.0 0.00 0.00 0.00 49 1011.9
20260905124006 75 152 0.0 0.0 0.00 0.00 0.00 47 1011.9
20260905123550 75 152 0.0 0.0 0.00 0.00 0.00 47 1011.9
20260905123037 75 152 0.0 0.0 0.00 0.00 0.00 47 1011.8
20260905122509 75 152 0.0 0.0 0.00 0.00 0.00 47 1011.7
20260905122051 75 152 0.0 0.0 0.00 0.00 0.00 47 1011.7
20260905121537 75 152 0.0 0.0 0.00 0.00 0.00 52 1011.7
20260905121011 75 152 0.0 0.0 0.00 0.00 0.00 51 1011.7
20260905120554 75 152 0.0 0.0 0.00 0.00 0.00 49 1011.8
20260905120041 75 152 0.0 0.0 0.00 0.00 0.00 54 1011.7
20260905115513 75 152 0.0 0.0 0.00 0.00 0.00 54 1011.6
20260905115058 76 152 0.0 0.0 0.00 0.00 0.00 52 1011.6
20260905114537 76 152 0.0 0.0 0.00 0.00 0.00 54 1011.5
20260905114016 76 152 0.0 0.0 0.00 0.00 0.00 58 1011.4
20260905113556 76 149 0.0 0.0 0.00 0.00 0.00 58 1011.3
20260905113035 76 148 0.0 0.0 0.00 0.00 0.00 58 1011.3
20260905112515 76 127 0.0 1.0 0.00 0.00 0.00 58 1011.3
20260905112102 76 127 0.0 1.0 0.00 0.00 0.00 60 1011.2
20260905111552 76 127 0.0 0.0 0.00 0.00 0.00 59 1011.2
20260905111017 76 127 0.0 1.0 0.00 0.00 0.00 57 1011.1
20260905110600 76 127 0.0 1.0 0.00 0.00 0.00 56 1011.1
20260905110042 76 127 0.0 0.0 0.00 0.00 0.00 55 1010.9
20260905105520 76 127 0.0 0.0 0.00 0.00 0.00 56 1011.0
20260905105101 76 127 0.0 0.0 0.00 0.00 0.00 58 1011.0
20260905104604 76 127 0.0 0.0 0.00 0.00 0.00 58 1010.9
20260905104021 76 127 0.0 0.0 0.00 0.00 0.00 58 1010.9
20260905103605 76 127 0.0 0.0 0.00 0.00 0.00 59 1010.8
20260905103044 76 127 0.0 0.0 0.00 0.00 0.00 58 1010.8
20260905102523 76 127 0.0 0.0 0.00 0.00 0.00 58 1010.9
20260905102002 76 127 0.0 0.0 0.00 0.00 0.00 58 1010.9
20260905101550 76 127 0.0 0.0 0.00 0.00 0.00 58 1010.9
20260905101025 76 127 0.0 0.0 0.00 0.00 0.00 58 1011.0
20260905100505 76 127 0.0 0.0 0.00 0.00 0.00 57 1011.0
20260905100049 76 127 0.0 0.0 0.00 0.00 0.00 57 1010.9
20260905095529 76 127 0.0 0.0 0.00 0.00 0.00 57 1011.0
20260905095010 76 127 0.0 0.0 0.00 0.00 0.00 56 1011.0
20260905094659 76 127 0.0 0.0 0.00 0.00 0.00 58 1010.9
20260905094032 76 127 0.0 0.0 0.00 0.00 0.00 60 1011.0
20260905093510 76 127 0.0 0.0 0.00 0.00 0.00 61 1010.9
20260905093103 76 127 0.0 0.0 0.00 0.00 0.00 62 1010.9
20260905092535 76 127 0.0 0.0 0.00 0.00 0.00 62 1010.9
20260905092016 76 127 0.0 0.0 0.00 0.00 0.00 62 1010.9
20260905091602 76 127 0.0 0.0 0.00 0.00 0.00 62 1010.9
20260905091035 76 127 0.0 0.0 0.00 0.00 0.00 62 1011.0
20260905090517 77 127 0.0 0.0 0.00 0.00 0.00 62 1010.9
20260905090059 77 127 0.0 0.0 0.00 0.00 0.00 62 1010.9
20260905085538 77 127 0.0 0.0 0.00 0.00 0.00 64 1010.8
20260905085022 77 127 0.0 0.0 0.00 0.00 0.00 64 1010.8
20260905084609 77 127 0.0 0.0 0.00 0.00 0.00 64 1010.8
20260905084044 77 127 0.0 0.0 0.00 0.00 0.00 65 1010.8
20260905083521 77 127 0.0 0.0 0.00 0.00 0.00 66 1010.9
20260905083104 77 127 0.0 0.0 0.00 0.00 0.00 67 1010.9
20260905082545 77 127 0.0 0.0 0.00 0.00 0.00 67 1010.9
20260905082024 77 127 0.0 0.0 0.00 0.00 0.00 67 1010.8
20260905081502 78 127 0.0 0.0 0.00 0.00 0.00 67 1010.8
20260905081045 78 127 0.0 0.0 0.00 0.00 0.00 66 1010.8
20260905080527 78 127 0.0 0.0 0.00 0.00 0.00 68 1010.9
20260905080006 78 127 0.0 0.0 0.00 0.00 0.00 68 1010.8
20260905075548 78 127 0.0 0.0 0.00 0.00 0.00 69 1010.8
20260905075030 78 127 0.0 0.0 0.00 0.00 0.00 69 1010.8
20260905074506 78 127 0.0 0.0 0.00 0.00 0.00 69 1010.7
20260905074050 78 127 0.0 0.0 0.00 0.00 0.00 70 1010.8
20260905073529 78 127 0.0 0.0 0.00 0.00 0.00 70 1010.8
20260905073009 78 127 0.0 0.0 0.00 0.00 0.00 70 1010.7
20260905072551 78 127 0.0 0.0 0.00 0.00 0.00 71 1010.7
20260905072031 78 127 0.0 0.0 0.00 0.00 0.00 70 1010.8
20260905071511 78 127 0.0 0.0 0.00 0.00 0.00 70 1010.8
20260905071054 78 127 0.0 0.0 0.00 0.00 0.00 70 1010.9
20260905070533 78 127 0.0 0.0 0.00 0.00 0.00 70 1011.0
20260905070013 78 127 0.0 0.0 0.00 0.00 0.00 70 1010.9
20260905065557 78 127 0.0 0.0 0.00 0.00 0.00 70 1011.0
20260905065035 78 127 0.0 0.0 0.00 0.00 0.00 70 1010.9
20260905064516 78 127 0.0 0.0 0.00 0.00 0.00 70 1010.9
20260905064059 78 127 0.0 0.0 0.00 0.00 0.00 70 1011.0
20260905063538 78 127 0.0 0.0 0.00 0.00 0.00 70 1011.0
20260905063018 78 127 0.0 0.0 0.00 0.00 0.00 70 1010.9
20260905062602 79 127 0.0 0.0 0.00 0.00 0.00 70 1011.0
20260905062042 78 127 0.0 0.0 0.00 0.00 0.00 71 1011.0
20260905061529 79 127 0.0 0.0 0.00 0.00 0.00 70 1011.1
20260905061105 79 127 0.0 0.0 0.00 0.00 0.00 70 1011.1
20260905060543 79 127 0.0 0.0 0.00 0.00 0.00 71 1011.1
20260905060046 79 127 0.0 0.0 0.00 0.00 0.00 71 1011.1
20260905055502 79 127 0.0 0.0 0.00 0.00 0.00 71 1011.1
20260905055046 79 127 0.0 0.0 0.00 0.00 0.00 71 1011.1
20260905054534 79 127 0.0 0.0 0.00 0.00 0.00 71 1011.1
20260905054005 79 127 0.0 0.0 0.00 0.00 0.00 70 1011.1
20260905053551 79 127 0.0 0.0 0.00 0.00 0.00 70 1011.1
20260905053029 79 127 0.0 0.0 0.00 0.00 0.00 70 1011.1
20260905052508 79 127 0.0 0.0 0.00 0.00 0.00 70 1011.2
20260905052054 79 127 0.0 0.0 0.00 0.00 0.00 70 1011.2
20260905051537 79 127 0.0 0.0 0.00 0.00 0.00 70 1011.2
20260905051010 79 127 0.0 0.0 0.00 0.00 0.00 70 1011.1
20260905050553 79 127 0.0 0.0 0.00 0.00 0.00 71 1011.1
20260905050035 79 127 0.0 0.0 0.00 0.00 0.00 71 1011.1
20260905045516 79 127 0.0 0.0 0.00 0.00 0.00 71 1011.1
20260905045058 79 127 0.0 0.0 0.00 0.00 0.00 71 1011.2
20260905044540 79 127 0.0 0.0 0.00 0.00 0.00 71 1011.2
20260905044017 79 127 0.0 0.0 0.00 0.00 0.00 71 1011.0
20260905043601 79 127 0.0 0.0 0.00 0.00 0.00 71 1010.9
20260905043042 79 127 0.0 0.0 0.00 0.00 0.00 71 1010.9
20260905042520 80 127 0.0 0.0 0.00 0.00 0.00 71 1010.9
20260905042001 80 127 0.0 0.0 0.00 0.00 0.00 71 1010.9
20260905041545 80 127 0.0 0.0 0.00 0.00 0.00 71 1010.8
20260905041024 80 127 0.0 0.0 0.00 0.00 0.00 71 1010.9
20260905040504 80 126 0.0 0.0 0.00 0.00 0.00 71 1010.9
20260905040058 80 127 0.0 0.0 0.00 0.00 0.00 71 1010.8
20260905035530 81 127 0.0 0.0 0.00 0.00 0.00 71 1010.9
20260905035006 81 127 0.0 0.0 0.00 0.00 0.00 71 1011.0
20260905034550 81 127 0.0 0.0 0.00 0.00 0.00 71 1011.0
20260905034029 81 127 0.0 0.0 0.00 0.00 0.00 71 1011.0
20260905033509 81 127 0.0 0.0 0.00 0.00 0.00 71 1011.0
20260905033104 81 127 0.0 0.0 0.00 0.00 0.00 71 1010.9
20260905032533 81 127 0.0 0.0 0.00 0.00 0.00 71 1010.9
20260905032012 81 127 0.0 0.0 0.00 0.00 0.00 71 1010.9
20260905031559 81 127 0.0 0.0 0.00 0.00 0.00 71 1010.9
20260905031035 81 127 0.0 0.0 0.00 0.00 0.00 71 1010.9
20260905030515 81 127 0.0 0.0 0.00 0.00 0.00 71 1010.8
20260905030109 82 127 0.0 0.0 0.00 0.00 0.00 71 1010.9
20260905025541 82 127 0.0 0.0 0.00 0.00 0.00 71 1010.8
20260905025017 82 127 0.0 0.0 0.00 0.00 0.00 71 1010.7
20260905024612 82 127 0.0 0.0 0.00 0.00 0.00 71 1010.7
20260905024042 82 127 0.0 0.0 0.00 0.00 0.00 71 1010.6
20260905023519 82 127 0.0 0.0 0.00 0.00 0.00 70 1010.5
20260905023101 82 127 0.0 0.0 0.00 0.00 0.00 69 1010.5
20260905022544 82 127 0.0 0.0 0.00 0.00 0.00 69 1010.5
20260905022019 83 127 0.0 0.0 0.00 0.00 0.00 68 1010.4
20260905021615 83 127 0.0 0.0 0.00 0.00 0.00 68 1010.2
20260905021042 83 127 0.0 0.0 0.00 0.00 0.00 68 1010.2
20260905020522 83 127 0.0 0.0 0.00 0.00 0.00 68 1010.1
20260905020002 83 127 0.0 0.0 0.00 0.00 0.00 68 1010.0
20260905015547 84 127 0.0 0.0 0.00 0.00 0.00 67 1010.0
20260905015027 84 127 0.0 0.0 0.00 0.00 0.00 67 1010.0
20260905014506 84 127 0.0 0.0 0.00 0.00 0.00 66 1009.9
20260905014048 84 127 0.0 0.0 0.00 0.00 0.00 65 1009.8
20260905013527 85 127 0.0 0.0 0.00 0.00 0.00 65 1009.8
20260905013008 85 127 0.0 0.0 0.00 0.00 0.00 64 1009.7
20260905012550 85 127 0.0 0.0 0.00 0.00 0.00 64 1009.7
20260905012030 86 127 0.0 0.0 0.00 0.00 0.00 63 1009.6
20260905011509 86 127 0.0 0.0 0.00 0.00 0.00 63 1009.6
20260905011052 86 127 0.0 0.0 0.00 0.00 0.00 63 1009.5
20260905010532 87 127 0.0 0.0 0.00 0.00 0.00 61 1009.4
20260905010011 87 127 0.0 0.0 0.00 0.00 0.00 60 1009.4
20260905005555 88 127 0.0 0.0 0.00 0.00 0.00 60 1009.5
20260905005035 88 127 0.0 0.0 0.00 0.00 0.00 59 1009.4
20260905004514 89 127 0.0 0.0 0.00 0.00 0.00 58 1009.5
20260905004058 89 127 0.0 0.0 0.00 0.00 0.00 58 1009.5
20260905003538 89 127 0.0 0.0 0.00 0.00 0.00 57 1009.4
20260905003018 90 127 0.0 0.0 0.00 0.00 0.00 56 1009.4
20260905002601 90 127 0.0 0.0 0.00 0.00 0.00 56 1009.4
20260905002042 90 127 0.0 0.0 0.00 0.00 0.00 55 1009.5
20260905001518 91 127 0.0 0.0 0.00 0.00 0.00 54 1009.6
20260905001101 91 127 0.0 0.0 0.00 0.00 0.00 54 1009.5
20260905000542 91 127 0.0 0.0 0.00 0.00 0.00 53 1009.5
20260905000021 92 127 0.0 0.0 0.00 0.00 0.00 53 1009.5
20260904235603 92 127 0.0 0.0 0.00 0.00 0.00 52 1009.5
20260904235043 92 127 0.0 0.0 0.00 0.00 0.00 52 1009.6
20260904234528 92 161 0.0 0.0 0.00 0.00 0.00 51 1009.6
20260904234000 93 161 0.0 1.0 0.00 0.00 0.00 50 1009.7
20260904233549 93 144 0.0 1.0 0.00 0.00 0.00 50 1009.7
20260904233024 93 140 0.0 1.0 0.00 0.00 0.00 50 1009.7
20260904232503 93 153 0.0 2.0 0.00 0.00 0.00 49 1009.8
20260904232045 93 127 0.0 2.0 0.00 0.00 0.00 49 1009.8
20260904231525 93 153 0.0 3.0 0.00 0.00 0.00 48 1009.8
20260904231003 93 123 0.0 2.0 0.00 0.00 0.00 48 1009.8
20260904230548 93 153 0.0 2.0 0.00 0.00 0.00 49 1009.8
20260904230036 93 133 0.0 2.0 0.00 0.00 0.00 48 1009.9
20260904225509 94 160 0.0 2.0 0.00 0.00 0.00 48 1009.9
20260904225049 94 153 0.0 3.0 0.00 0.00 0.00 49 1010.0
20260904224533 94 158 0.0 3.0 0.00 0.00 0.00 48 1009.9
20260904224012 94 158 0.0 2.0 0.00 0.00 0.00 49 1009.8
20260904223554 94 114 0.0 2.0 0.00 0.00 0.00 48 1009.8
20260904223033 94 155 0.0 3.0 0.00 0.00 0.00 48 1009.9
20260904222514 94 167 1.0 3.0 0.00 0.00 0.00 48 1009.8
20260904222055 94 141 0.0 3.0 0.00 0.00 0.00 49 1009.8
20260904221536 94 158 0.0 3.0 0.00 0.00 0.00 48 1009.9
20260904221015 94 142 0.0 2.0 0.00 0.00 0.00 49 1010.0
20260904220558 94 102 0.0 3.0 0.00 0.00 0.00 50 1010.0
20260904220043 94 111 0.0 3.0 0.00 0.00 0.00 50 1010.0
20260904215518 94 133 0.0 1.0 0.00 0.00 0.00 50 1010.1
20260904215103 94 140 0.0 2.0 0.00 0.00 0.00 50 1010.1
20260904214548 94 117 0.0 2.0 0.00 0.00 0.00 50 1010.1
20260904214024 94 162 0.0 3.0 0.00 0.00 0.00 50 1010.1
20260904213604 94 149 1.0 3.0 0.00 0.00 0.00 49 1010.2
20260904213044 94 127 0.0 3.0 0.00 0.00 0.00 50 1010.2
20260904212524 94 165 0.0 3.0 0.00 0.00 0.00 49 1010.1
20260904212003 94 165 0.0 4.0 0.00 0.00 0.00 49 1010.2
20260904211547 94 122 1.0 4.0 0.00 0.00 0.00 50 1010.2
20260904211027 94 140 0.0 4.0 0.00 0.00 0.00 49 1010.3
20260904210612 94 147 0.0 4.0 0.00 0.00 0.00 50 1010.3
20260904210106 94 159 0.0 3.0 0.00 0.00 0.00 50 1010.4
20260904205538 94 163 0.0 3.0 0.00 0.00 0.00 50 1010.5
20260904205020 94 148 0.0 1.0 0.00 0.00 0.00 50 1010.5
20260904204600 94 136 0.0 3.0 0.00 0.00 0.00 50 1010.4
20260904204039 94 158 0.0 3.0 0.00 0.00 0.00 50 1010.5
20260904203520 95 160 0.0 3.0 0.00 0.00 0.00 51 1010.6
20260904203103 94 160 1.0 3.0 0.00 0.00 0.00 51 1010.7
20260904202542 94 127 0.0 3.0 0.00 0.00 0.00 51 1010.6
20260904202021 94 127 0.0 3.0 0.00 0.00 0.00 51 1010.7
20260904201501 94 134 0.0 3.0 0.00 0.00 0.00 50 1010.7
20260904201045 94 160 0.0 3.0 0.00 0.00 0.00 51 1010.8
20260904200630 94 162 0.0 4.0 0.00 0.00 0.00 51 1010.8
20260904200030 94 139 0.0 4.0 0.00 0.00 0.00 50 1010.8
20260904195555 94 139 0.0 4.0 0.00 0.00 0.00 50 1010.9
20260904195035 94 153 0.0 4.0 0.00 0.00 0.00 51 1010.9
20260904194515 95 149 1.0 4.0 0.00 0.00 0.00 49 1011.0
20260904194058 95 132 0.0 3.0 0.00 0.00 0.00 51 1010.9
20260904193538 94 158 1.0 2.0 0.00 0.00 0.00 52 1011.0
20260904193019 94 129 0.0 2.0 0.00 0.00 0.00 52 1011.1
20260904192601 94 139 0.0 3.0 0.00 0.00 0.00 52 1011.1
20260904192043 94 151 1.0 4.0 0.00 0.00 0.00 51 1011.2
20260904191519 94 142 0.0 4.0 0.00 0.00 0.00 51 1011.2